THY8NK LFMN-LTFM

Flight info

Callsign THY8NK
Flight time 2h 19m
Altitude 39000
Route BASIP DCT ANAKI DCT IBENI DCT KENEM DCT MITNO DCT NISVA DCT DEDIN DCT AYTEK
Aircraft A333/H-SDE3GHIJ2J3J5M1RVWXYZ/LB2D1

Departure

Time 2026-05-06 13:15
Airport Nice-Côte d'Azur Airport (LFMN)

Arrival

Time 2026-05-06 15:34
Airport İstanbul Airport (LTFM)
Time Latitude Longitude Altitude Speed Heading
2026-05-06 12:38 43.66409 7.21227 25 ft 0 kts 350°
2026-05-06 13:05 43.66396 7.21230 28 ft 3 kts 350°
2026-05-06 13:05 43.66376 7.21235 28 ft 3 kts 350°
2026-05-06 13:06 43.66361 7.21238 28 ft 3 kts
2026-05-06 13:06 43.66346 7.21232 28 ft 3 kts 52°
2026-05-06 13:06 43.66337 7.21208 30 ft 3 kts 75°
2026-05-06 13:06 43.66334 7.21194 28 ft 0 kts 81°
2026-05-06 13:08 43.66340 7.21244 28 ft 7 kts 81°
2026-05-06 13:09 43.66343 7.21322 28 ft 9 kts 89°
2026-05-06 13:09 43.66351 7.21413 26 ft 10 kts 82°
2026-05-06 13:09 43.66377 7.21496 29 ft 8 kts 71°
2026-05-06 13:09 43.66355 7.21560 27 ft 8 kts 133°
2026-05-06 13:10 43.66321 7.21620 29 ft 7 kts 107°
2026-05-06 13:10 43.66343 7.21681 30 ft 8 kts 47°
2026-05-06 13:10 43.66385 7.21738 28 ft 9 kts 45°
2026-05-06 13:10 43.66433 7.21805 29 ft 11 kts 45°
2026-05-06 13:11 43.66489 7.21881 29 ft 12 kts 45°
2026-05-06 13:11 43.66552 7.21968 27 ft 12 kts 46°
2026-05-06 13:11 43.66541 7.22041 26 ft 8 kts 133°
2026-05-06 13:11 43.66497 7.22104 27 ft 10 kts 135°
2026-05-06 13:12 43.66450 7.22168 31 ft 9 kts 135°
2026-05-06 13:12 43.66400 7.22237 28 ft 11 kts 135°
2026-05-06 13:12 43.66369 7.22330 26 ft 11 kts 83°
2026-05-06 13:12 43.66414 7.22417 30 ft 12 kts 45°
2026-05-06 13:13 43.66477 7.22506 25 ft 14 kts 45°
2026-05-06 13:13 43.66548 7.22604 29 ft 14 kts 44°
2026-05-06 13:13 43.66592 7.22687 30 ft 9 kts 91°
2026-05-06 13:13 43.66555 7.22757 28 ft 10 kts 135°
2026-05-06 13:14 43.66524 7.22780 29 ft 6 kts 180°
2026-05-06 13:14 43.66492 7.22749 30 ft 6 kts 225°
2026-05-06 13:14 43.66390 7.22608 31 ft 50 kts 224°
2026-05-06 13:14 43.65999 7.22072 27 ft 106 kts 225°
2026-05-06 13:15 43.65364 7.21195 105 ft 145 kts 225°
2026-05-06 13:15 43.64664 7.20215 769 ft 141 kts 223°
2026-05-06 13:15 43.63974 7.19268 1418 ft 142 kts 221°
2026-05-06 13:15 43.63193 7.18239 1645 ft 168 kts 223°
2026-05-06 13:16 43.62294 7.17016 1869 ft 195 kts 224°
2026-05-06 13:16 43.61149 7.15803 2141 ft 224 kts 206°
2026-05-06 13:16 43.59533 7.15547 2576 ft 254 kts 173°
2026-05-06 13:16 43.57855 7.16544 3326 ft 268 kts 156°
2026-05-06 13:17 43.56287 7.18021 4115 ft 278 kts 139°
2026-05-06 13:17 43.55190 7.20241 4984 ft 287 kts 114°
2026-05-06 13:17 43.54588 7.22889 5902 ft 290 kts 106°
2026-05-06 13:17 43.54217 7.25615 6811 ft 293 kts 95°
2026-05-06 13:18 43.54435 7.28428 7612 ft 301 kts 71°
2026-05-06 13:18 43.55396 7.30995 8517 ft 303 kts 56°
2026-05-06 13:18 43.56588 7.33397 9426 ft 306 kts 54°
2026-05-06 13:18 43.57847 7.35806 10152 ft 316 kts 53°
2026-05-06 13:19 43.59182 7.38340 10511 ft 337 kts 53°
2026-05-06 13:19 43.60594 7.41024 10922 ft 354 kts 53°
2026-05-06 13:19 43.62060 7.43816 11540 ft 363 kts 53°
2026-05-06 13:19 43.63551 7.46663 12245 ft 369 kts 53°
2026-05-06 13:20 43.65067 7.49561 12925 ft 375 kts 53°
2026-05-06 13:20 43.66604 7.52503 13648 ft 380 kts 54°
2026-05-06 13:20 43.68159 7.55482 14258 ft 386 kts 54°
2026-05-06 13:20 43.69740 7.58515 14834 ft 392 kts 54°
2026-05-06 13:21 43.71351 7.61608 15310 ft 401 kts 54°
2026-05-06 13:21 43.72995 7.64769 15867 ft 408 kts 54°
2026-05-06 13:21 43.74659 7.67971 16428 ft 413 kts 54°
2026-05-06 13:21 43.76348 7.71225 16978 ft 419 kts 54°
2026-05-06 13:22 43.78062 7.74530 17547 ft 425 kts 54°
2026-05-06 13:22 43.79793 7.77872 18103 ft 430 kts 54°
2026-05-06 13:22 43.81544 7.81257 18585 ft 435 kts 54°
2026-05-06 13:22 43.83313 7.84679 19090 ft 439 kts 54°
2026-05-06 13:23 43.85096 7.88136 19598 ft 443 kts 54°
2026-05-06 13:23 43.86895 7.91623 20107 ft 447 kts 54°
2026-05-06 13:23 43.88696 7.95159 20630 ft 451 kts 57°
2026-05-06 13:23 43.90385 7.98837 21136 ft 453 kts 60°
2026-05-06 13:24 43.91988 8.02615 21641 ft 456 kts 62°
2026-05-06 13:24 43.93553 8.06461 22128 ft 460 kts 63°
2026-05-06 13:24 43.95090 8.10306 22591 ft 463 kts 63°
2026-05-06 13:24 43.96677 8.14289 23026 ft 468 kts 63°
2026-05-06 13:25 43.98262 8.18247 23514 ft 470 kts 63°
2026-05-06 13:25 43.99863 8.22226 23920 ft 473 kts 63°
2026-05-06 13:25 44.01454 8.26163 24276 ft 476 kts 63°
2026-05-06 13:25 44.03085 8.30191 24656 ft 479 kts 63°
2026-05-06 13:26 44.04726 8.34242 25021 ft 483 kts 63°
2026-05-06 13:26 44.06376 8.38321 25391 ft 485 kts 63°
2026-05-06 13:26 44.08033 8.42422 25745 ft 488 kts 63°
2026-05-06 13:26 44.09698 8.46552 26101 ft 491 kts 63°
2026-05-06 13:27 44.11374 8.50715 26481 ft 495 kts 64°
2026-05-06 13:27 44.13062 8.54916 26770 ft 499 kts 64°
2026-05-06 13:27 44.14759 8.59148 27122 ft 502 kts 64°
2026-05-06 13:27 44.16463 8.63401 27467 ft 504 kts 64°
2026-05-06 13:28 44.18095 8.67738 27815 ft 505 kts 70°
2026-05-06 13:28 44.19278 8.72319 28126 ft 501 kts 80°
2026-05-06 13:28 44.19881 8.77072 28397 ft 496 kts 92°
2026-05-06 13:28 44.20032 8.81863 28753 ft 495 kts 96°
2026-05-06 13:29 44.20039 8.86649 29098 ft 495 kts 98°
2026-05-06 13:29 44.19967 8.91452 29423 ft 497 kts 99°
2026-05-06 13:29 44.19861 8.96277 29752 ft 499 kts 99°
2026-05-06 13:29 44.19749 9.01121 30051 ft 501 kts 99°
2026-05-06 13:30 44.19643 9.05984 30327 ft 504 kts 99°
2026-05-06 13:30 44.19546 9.10872 30586 ft 505 kts 98°
2026-05-06 13:30 44.19457 9.15750 31009 ft 504 kts 98°
2026-05-06 13:30 44.19372 9.20637 31297 ft 505 kts 98°
2026-05-06 13:31 44.19285 9.25540 31551 ft 507 kts 98°
2026-05-06 13:31 44.19197 9.30468 31813 ft 509 kts 98°
2026-05-06 13:31 44.19108 9.35338 32141 ft 510 kts 98°
2026-05-06 13:31 44.19016 9.40330 32551 ft 508 kts 98°
2026-05-06 13:32 44.18924 9.45241 32936 ft 507 kts 98°
2026-05-06 13:32 44.18828 9.50145 33227 ft 506 kts 98°
2026-05-06 13:32 44.18730 9.54982 33533 ft 507 kts 98°
2026-05-06 13:32 44.18628 9.59885 33887 ft 506 kts 98°
2026-05-06 13:33 44.18525 9.64777 34207 ft 505 kts 98°
2026-05-06 13:33 44.18421 9.69661 34558 ft 503 kts 97°
2026-05-06 13:33 44.18316 9.74526 34901 ft 502 kts 97°
2026-05-06 13:33 44.18208 9.79385 35165 ft 502 kts 97°
2026-05-06 13:34 44.18097 9.84254 35374 ft 502 kts 97°
2026-05-06 13:34 44.17984 9.89103 35684 ft 501 kts 97°
2026-05-06 13:34 44.17869 9.93953 35991 ft 500 kts 96°
2026-05-06 13:34 44.17752 9.98787 36257 ft 500 kts 96°
2026-05-06 13:35 44.17634 10.03624 36511 ft 500 kts 97°
2026-05-06 13:35 44.17512 10.08463 36736 ft 500 kts 97°
2026-05-06 13:35 44.17389 10.13298 37002 ft 499 kts 97°
2026-05-06 13:35 44.17266 10.18118 37289 ft 498 kts 97°
2026-05-06 13:36 44.17140 10.22933 37569 ft 496 kts 97°
2026-05-06 13:36 44.17013 10.27730 37875 ft 495 kts 97°
2026-05-06 13:36 44.16883 10.32518 38054 ft 495 kts 97°
2026-05-06 13:36 44.16751 10.37299 38340 ft 494 kts 97°
2026-05-06 13:37 44.16618 10.42072 38617 ft 493 kts 97°
2026-05-06 13:37 44.16485 10.46836 38831 ft 492 kts 97°
2026-05-06 13:37 44.16349 10.51592 39012 ft 492 kts 97°
2026-05-06 13:37 44.16209 10.56356 39114 ft 493 kts 97°
2026-05-06 13:38 44.16068 10.61125 39289 ft 492 kts 97°
2026-05-06 13:38 44.15927 10.65869 39514 ft 490 kts 97°
2026-05-06 13:38 44.15786 10.70536 39673 ft 489 kts 97°
2026-05-06 13:38 44.15641 10.75263 39805 ft 489 kts 97°
2026-05-06 13:39 44.15494 10.80008 39848 ft 491 kts 97°
2026-05-06 13:39 44.15343 10.84761 39987 ft 491 kts 97°
2026-05-06 13:39 44.15191 10.89512 40123 ft 491 kts 97°
2026-05-06 13:39 44.15036 10.94262 40277 ft 491 kts 97°
2026-05-06 13:40 44.14880 10.99006 40426 ft 490 kts 97°
2026-05-06 13:40 44.14722 11.03745 40558 ft 490 kts 97°
2026-05-06 13:40 44.14562 11.08493 40685 ft 491 kts 97°
2026-05-06 13:40 44.14401 11.13232 40807 ft 491 kts 97°
2026-05-06 13:41 44.14237 11.17983 40893 ft 492 kts 97°
2026-05-06 13:41 44.13900 11.27536 40946 ft 496 kts 97°
2026-05-06 13:42 44.13555 11.37118 40938 ft 495 kts 97°
2026-05-06 13:42 44.13204 11.46682 40936 ft 495 kts 97°
2026-05-06 13:43 44.12844 11.56242 40926 ft 494 kts 97°
2026-05-06 13:43 44.12477 11.65805 40923 ft 495 kts 97°
2026-05-06 13:44 44.12101 11.75360 40903 ft 495 kts 97°
2026-05-06 13:44 44.11717 11.84923 40913 ft 495 kts 97°
2026-05-06 13:45 44.11325 11.94482 40914 ft 495 kts 97°
2026-05-06 13:45 44.10723 12.08816 40909 ft 495 kts 97°
2026-05-06 13:46 44.10312 12.18356 40908 ft 494 kts 97°
2026-05-06 13:46 44.09893 12.27889 40911 ft 493 kts 97°
2026-05-06 13:47 44.09470 12.37356 40916 ft 494 kts 97°
2026-05-06 13:47 44.09036 12.46881 40908 ft 493 kts 97°
2026-05-06 13:48 44.08594 12.56388 40911 ft 492 kts 97°
2026-05-06 13:48 44.08145 12.65884 40910 ft 492 kts 97°
2026-05-06 13:49 44.07689 12.75378 40908 ft 492 kts 97°
2026-05-06 13:49 44.07224 12.84873 40908 ft 492 kts 97°
2026-05-06 13:50 44.06752 12.94358 40903 ft 492 kts 97°
2026-05-06 13:50 44.06272 13.03836 40899 ft 491 kts 97°
2026-05-06 13:51 44.05783 13.13320 40906 ft 492 kts 97°
2026-05-06 13:51 44.05287 13.22794 40914 ft 492 kts 97°
2026-05-06 13:52 44.04784 13.32268 40907 ft 492 kts 97°
2026-05-06 13:52 44.04277 13.41680 40918 ft 492 kts 97°
2026-05-06 13:53 44.03758 13.51151 40906 ft 491 kts 97°
2026-05-06 13:53 44.03231 13.60622 40915 ft 492 kts 97°
2026-05-06 13:54 44.02696 13.70098 40927 ft 492 kts 97°
2026-05-06 13:54 44.02154 13.79565 40938 ft 492 kts 98°
2026-05-06 13:55 44.01604 13.89032 40933 ft 492 kts 98°
2026-05-06 13:55 44.00834 13.98452 40935 ft 490 kts 102°
2026-05-06 13:56 43.99747 14.07785 40941 ft 489 kts 103°
2026-05-06 13:56 43.98624 14.17099 40940 ft 489 kts 103°
2026-05-06 13:57 43.97528 14.26429 40939 ft 490 kts 103°
2026-05-06 13:57 43.96447 14.35761 40944 ft 489 kts 103°
2026-05-06 13:58 43.95365 14.45086 40946 ft 489 kts 103°
2026-05-06 13:58 43.94274 14.54408 40954 ft 489 kts 103°
2026-05-06 13:59 43.93174 14.63727 40952 ft 489 kts 103°
2026-05-06 13:59 43.92065 14.73046 40957 ft 489 kts 103°
2026-05-06 14:00 43.90958 14.82295 40961 ft 490 kts 103°
2026-05-06 14:00 43.89835 14.91603 40960 ft 490 kts 103°
2026-05-06 14:01 43.88703 15.00910 40966 ft 490 kts 103°
2026-05-06 14:01 43.87564 15.10218 40977 ft 489 kts 103°
2026-05-06 14:02 43.86419 15.19511 40979 ft 489 kts 103°
2026-05-06 14:02 43.85266 15.28807 40966 ft 489 kts 103°
2026-05-06 14:03 43.84106 15.38094 40988 ft 489 kts 103°
2026-05-06 14:03 43.82939 15.47366 40987 ft 489 kts 103°
2026-05-06 14:04 43.81765 15.56634 40984 ft 489 kts 103°
2026-05-06 14:04 43.80783 15.64335 40969 ft 489 kts 103°
2026-05-06 14:05 43.79402 15.75103 40986 ft 489 kts 103°
2026-05-06 14:05 43.78206 15.84360 40989 ft 489 kts 103°
2026-05-06 14:06 43.77197 15.92111 40990 ft 489 kts 103°
2026-05-06 14:06 43.75987 16.01360 40983 ft 488 kts 103°
2026-05-06 14:07 43.74774 16.10582 41003 ft 487 kts 103°
2026-05-06 14:07 43.73554 16.19786 41000 ft 486 kts 103°
2026-05-06 14:08 43.72335 16.28919 41012 ft 486 kts 103°
2026-05-06 14:08 43.71102 16.38110 41009 ft 486 kts 103°
2026-05-06 14:09 43.69861 16.47291 41019 ft 486 kts 103°
2026-05-06 14:09 43.68613 16.56471 41025 ft 486 kts 103°
2026-05-06 14:10 43.67357 16.65651 41030 ft 486 kts 104°
2026-05-06 14:10 43.66094 16.74820 41029 ft 486 kts 103°
2026-05-06 14:11 43.64826 16.83975 41033 ft 486 kts 103°
2026-05-06 14:11 43.63697 16.93169 41033 ft 488 kts 96°
2026-05-06 14:12 43.63865 17.02552 41032 ft 490 kts 87°
2026-05-06 14:12 43.64480 17.11932 41032 ft 491 kts 85°
2026-05-06 14:13 43.65171 17.21303 41035 ft 490 kts 85°
2026-05-06 14:13 43.65839 17.30674 41035 ft 490 kts 86°
2026-05-06 14:14 43.66480 17.40048 41029 ft 490 kts 86°
2026-05-06 14:14 43.67105 17.49420 41020 ft 490 kts 86°
2026-05-06 14:15 43.67719 17.58764 41023 ft 489 kts 86°
2026-05-06 14:15 43.68327 17.68127 41023 ft 489 kts 85°
2026-05-06 14:16 43.68928 17.77492 41017 ft 490 kts 86°
2026-05-06 14:16 43.69523 17.86858 41008 ft 489 kts 86°
2026-05-06 14:17 43.70105 17.96156 40999 ft 489 kts 86°
2026-05-06 14:17 43.70684 18.05521 40989 ft 489 kts 86°
2026-05-06 14:18 43.71254 18.14883 40978 ft 489 kts 86°
2026-05-06 14:18 43.71816 18.24252 40968 ft 489 kts 86°
2026-05-06 14:19 43.72371 18.33614 40963 ft 488 kts 86°
2026-05-06 14:19 43.72918 18.42966 40970 ft 488 kts 86°
2026-05-06 14:20 43.73458 18.52330 40969 ft 488 kts 86°
2026-05-06 14:20 43.73990 18.61690 40968 ft 488 kts 86°
2026-05-06 14:21 43.74514 18.71050 40975 ft 488 kts 86°
2026-05-06 14:21 43.75030 18.80413 40964 ft 488 kts 86°
2026-05-06 14:22 43.75539 18.89775 40965 ft 488 kts 86°
2026-05-06 14:22 43.76039 18.99139 40963 ft 488 kts 86°
2026-05-06 14:23 43.76532 19.08504 40961 ft 488 kts 86°
2026-05-06 14:23 43.77017 19.17869 40953 ft 488 kts 86°
2026-05-06 14:24 43.76570 19.27184 40944 ft 485 kts 104°
2026-05-06 14:24 43.74918 19.36225 40945 ft 485 kts 107°
2026-05-06 14:25 43.73032 19.45173 40941 ft 485 kts 108°
2026-05-06 14:25 43.71113 19.54120 40946 ft 485 kts 108°
2026-05-06 14:26 43.69224 19.63006 40945 ft 485 kts 108°
2026-05-06 14:26 43.67331 19.71953 40947 ft 485 kts 107°
2026-05-06 14:27 43.65436 19.80897 40947 ft 485 kts 108°
2026-05-06 14:27 43.63535 19.89830 40947 ft 485 kts 108°
2026-05-06 14:28 43.61623 19.98763 40946 ft 485 kts 108°
2026-05-06 14:28 43.59705 20.07688 40943 ft 485 kts 108°
2026-05-06 14:29 43.57780 20.16603 40948 ft 485 kts 108°
2026-05-06 14:29 43.55849 20.25511 40940 ft 485 kts 108°
2026-05-06 14:30 43.53912 20.34418 40951 ft 485 kts 108°
2026-05-06 14:30 43.51964 20.43325 40949 ft 486 kts 108°
2026-05-06 14:31 43.50011 20.52228 40953 ft 486 kts 108°
2026-05-06 14:31 43.48049 20.61128 40960 ft 485 kts 108°
2026-05-06 14:32 43.46082 20.70017 40966 ft 486 kts 108°
2026-05-06 14:32 43.44107 20.78908 40969 ft 485 kts 108°
2026-05-06 14:33 43.42128 20.87781 40968 ft 486 kts 108°
2026-05-06 14:33 43.40137 20.96662 40968 ft 486 kts 108°
2026-05-06 14:34 43.38142 21.05526 40965 ft 486 kts 108°
2026-05-06 14:34 43.36141 21.14386 40966 ft 485 kts 108°
2026-05-06 14:35 43.34134 21.23240 40962 ft 485 kts 108°
2026-05-06 14:35 43.32120 21.32088 40946 ft 485 kts 108°
2026-05-06 14:36 43.30112 21.40870 40959 ft 485 kts 108°
2026-05-06 14:36 43.28086 21.49693 40962 ft 485 kts 108°
2026-05-06 14:37 43.26052 21.58515 40941 ft 485 kts 108°
2026-05-06 14:37 43.24011 21.67335 40949 ft 485 kts 108°
2026-05-06 14:38 43.21964 21.76146 40929 ft 485 kts 108°
2026-05-06 14:38 43.19910 21.84950 40947 ft 485 kts 108°
2026-05-06 14:39 43.17850 21.93749 40932 ft 485 kts 108°
2026-05-06 14:39 43.15782 22.02542 40944 ft 485 kts 108°
2026-05-06 14:40 43.13709 22.11323 40953 ft 484 kts 108°
2026-05-06 14:40 43.11630 22.20096 40964 ft 485 kts 108°
2026-05-06 14:41 43.09543 22.28869 40979 ft 485 kts 108°
2026-05-06 14:41 43.07451 22.37631 40984 ft 485 kts 108°
2026-05-06 14:42 43.05348 22.46402 40972 ft 486 kts 108°
2026-05-06 14:42 43.03237 22.55171 40993 ft 486 kts 108°
2026-05-06 14:43 43.01121 22.63931 40995 ft 485 kts 108°
2026-05-06 14:43 42.98997 22.72688 40981 ft 486 kts 108°
2026-05-06 14:44 42.96830 22.81438 40979 ft 487 kts 110°
2026-05-06 14:45 42.93129 22.94344 40994 ft 487 kts 112°
2026-05-06 14:45 42.90598 23.02901 40994 ft 487 kts 111°
2026-05-06 14:46 42.88080 23.11482 40987 ft 487 kts 111°
2026-05-06 14:46 42.85570 23.20066 41000 ft 487 kts 111°
2026-05-06 14:47 42.83076 23.28584 40999 ft 487 kts 111°
2026-05-06 14:47 42.80556 23.37156 40992 ft 488 kts 111°
2026-05-06 14:48 42.78027 23.45729 41010 ft 488 kts 111°
2026-05-06 14:48 42.75492 23.54289 41006 ft 488 kts 111°
2026-05-06 14:49 42.72950 23.62848 41001 ft 488 kts 111°
2026-05-06 14:49 42.70398 23.71409 41020 ft 488 kts 111°
2026-05-06 14:50 42.67841 23.79959 41007 ft 488 kts 111°
2026-05-06 14:50 42.65278 23.88505 41018 ft 488 kts 111°
2026-05-06 14:51 42.62709 23.97039 41007 ft 488 kts 111°
2026-05-06 14:51 42.60137 24.05558 41014 ft 487 kts 111°
2026-05-06 14:52 42.57431 24.13992 41011 ft 488 kts 113°
2026-05-06 14:52 42.54638 24.22382 41001 ft 488 kts 113°
2026-05-06 14:53 42.52315 24.29355 40993 ft 488 kts 113°
2026-05-06 14:53 42.49517 24.37739 41011 ft 488 kts 113°
2026-05-06 14:54 42.46716 24.46113 40992 ft 488 kts 113°
2026-05-06 14:54 42.43908 24.54482 40989 ft 488 kts 113°
2026-05-06 14:55 42.41098 24.62831 40989 ft 487 kts 113°
2026-05-06 14:55 42.38283 24.71167 40985 ft 487 kts 113°
2026-05-06 14:56 42.35463 24.79498 40980 ft 487 kts 113°
2026-05-06 14:56 42.32634 24.87826 40983 ft 487 kts 114°
2026-05-06 14:57 42.29801 24.96142 40981 ft 487 kts 114°
2026-05-06 14:57 42.26963 25.04448 40989 ft 487 kts 114°
2026-05-06 14:58 42.24116 25.12753 40986 ft 487 kts 113°
2026-05-06 14:58 42.21263 25.21052 40994 ft 488 kts 114°
2026-05-06 14:59 42.18421 25.29297 40985 ft 488 kts 114°
2026-05-06 14:59 42.15575 25.37526 40997 ft 488 kts 114°
2026-05-06 15:00 42.12702 25.45809 40988 ft 488 kts 114°
2026-05-06 15:00 42.09817 25.54099 40997 ft 489 kts 113°
2026-05-06 15:01 42.06924 25.62393 40825 ft 493 kts 113°
2026-05-06 15:01 42.05461 25.66578 40274 ft 496 kts 113°
2026-05-06 15:01 42.03986 25.70789 39575 ft 500 kts 113°
2026-05-06 15:01 42.02500 25.75027 38915 ft 502 kts 112°
2026-05-06 15:02 42.01012 25.79262 37945 ft 500 kts 112°
2026-05-06 15:02 41.99535 25.83455 37162 ft 490 kts 112°
2026-05-06 15:02 41.98094 25.87537 36561 ft 478 kts 112°
2026-05-06 15:02 41.96684 25.91528 35980 ft 467 kts 112°
2026-05-06 15:03 41.95300 25.95443 35353 ft 461 kts 111°
2026-05-06 15:03 41.93918 25.99357 34679 ft 468 kts 111°
2026-05-06 15:03 41.92511 26.03340 33941 ft 475 kts 111°
2026-05-06 15:03 41.91082 26.07372 33073 ft 482 kts 111°
2026-05-06 15:04 41.89631 26.11458 32270 ft 487 kts 111°
2026-05-06 15:04 41.88167 26.15576 31768 ft 493 kts 111°
2026-05-06 15:04 41.86681 26.19744 31086 ft 497 kts 112°
2026-05-06 15:04 41.85185 26.23933 30439 ft 497 kts 112°
2026-05-06 15:05 41.83697 26.28089 30094 ft 489 kts 112°
2026-05-06 15:05 41.82258 26.32097 29903 ft 477 kts 112°
2026-05-06 15:05 41.80852 26.36166 29272 ft 473 kts 108°
2026-05-06 15:05 41.79690 26.40183 28862 ft 465 kts 106°
2026-05-06 15:06 41.78578 26.44238 28307 ft 462 kts 106°
2026-05-06 15:06 41.77484 26.48256 27914 ft 456 kts 106°
2026-05-06 15:06 41.76403 26.52219 27521 ft 452 kts 106°
2026-05-06 15:06 41.75273 26.56139 27190 ft 451 kts 111°
2026-05-06 15:07 41.73755 26.59823 26764 ft 453 kts 119°
2026-05-06 15:07 41.72044 26.63348 26380 ft 450 kts 121°
2026-05-06 15:07 41.70316 26.66814 25980 ft 447 kts 121°
2026-05-06 15:07 41.68594 26.70260 25622 ft 444 kts 121°
2026-05-06 15:08 41.66863 26.73731 25231 ft 441 kts 121°
2026-05-06 15:08 41.65037 26.76953 24877 ft 441 kts 131°
2026-05-06 15:08 41.62673 26.79552 24487 ft 441 kts 149°
2026-05-06 15:08 41.59858 26.81127 24130 ft 438 kts 166°
2026-05-06 15:09 41.56886 26.81928 23745 ft 435 kts 172°
2026-05-06 15:09 41.53909 26.82591 23302 ft 435 kts 168°
2026-05-06 15:09 41.51009 26.83814 22789 ft 440 kts 155°
2026-05-06 15:09 41.48408 26.85914 22261 ft 436 kts 139°
2026-05-06 15:10 41.46378 26.88847 21834 ft 427 kts 123°
2026-05-06 15:10 41.44785 26.92153 21485 ft 422 kts 117°
2026-05-06 15:10 41.43413 26.95587 21113 ft 418 kts 113°
2026-05-06 15:10 41.42152 26.99066 20767 ft 415 kts 112°
2026-05-06 15:11 41.40931 27.02538 20447 ft 412 kts 112°
2026-05-06 15:11 41.39713 27.05984 20174 ft 410 kts 112°
2026-05-06 15:11 41.38481 27.09400 19900 ft 408 kts 113°
2026-05-06 15:11 41.37239 27.12782 19642 ft 406 kts 113°
2026-05-06 15:12 41.35986 27.16139 19369 ft 404 kts 114°
2026-05-06 15:12 41.34730 27.19473 19125 ft 402 kts 114°
2026-05-06 15:12 41.33480 27.22773 18875 ft 399 kts 114°
2026-05-06 15:12 41.32226 27.26077 18613 ft 397 kts 114°
2026-05-06 15:13 41.30983 27.29348 18347 ft 395 kts 114°
2026-05-06 15:13 41.29745 27.32602 18056 ft 393 kts 114°
2026-05-06 15:13 41.28513 27.35840 17783 ft 392 kts 114°
2026-05-06 15:13 41.27288 27.39061 17490 ft 390 kts 114°
2026-05-06 15:14 41.26067 27.42264 17201 ft 388 kts 114°
2026-05-06 15:14 41.24850 27.45458 16913 ft 386 kts 114°
2026-05-06 15:14 41.23638 27.48633 16644 ft 384 kts 114°
2026-05-06 15:14 41.22432 27.51791 16365 ft 383 kts 114°
2026-05-06 15:15 41.21228 27.54940 16006 ft 381 kts 114°
2026-05-06 15:15 41.20029 27.58071 15645 ft 379 kts 114°
2026-05-06 15:15 41.18853 27.61138 15303 ft 377 kts 114°
2026-05-06 15:15 41.17668 27.64226 14962 ft 375 kts 114°
2026-05-06 15:16 41.16488 27.67298 14631 ft 373 kts 115°
2026-05-06 15:16 41.15313 27.70355 14292 ft 371 kts 115°
2026-05-06 15:16 41.14142 27.73394 13962 ft 369 kts 115°
2026-05-06 15:16 41.12977 27.76419 13605 ft 367 kts 115°
2026-05-06 15:17 41.11819 27.79420 13232 ft 365 kts 114°
2026-05-06 15:17 41.10664 27.82410 12867 ft 364 kts 115°
2026-05-06 15:17 41.09514 27.85387 12512 ft 362 kts 115°
2026-05-06 15:17 41.08366 27.88354 12148 ft 361 kts 114°
2026-05-06 15:18 41.07230 27.91289 11794 ft 359 kts 114°
2026-05-06 15:18 41.06098 27.94209 11452 ft 357 kts 114°
2026-05-06 15:18 41.04962 27.97134 11110 ft 356 kts 114°
2026-05-06 15:18 41.03833 28.00040 10761 ft 354 kts 114°
2026-05-06 15:19 41.02712 28.02925 10428 ft 351 kts 114°
2026-05-06 15:19 41.01607 28.05760 10092 ft 342 kts 114°
2026-05-06 15:19 41.00538 28.08493 9947 ft 323 kts 114°
2026-05-06 15:19 40.99538 28.11039 9937 ft 305 kts 114°
2026-05-06 15:20 40.98584 28.13474 9888 ft 290 kts 114°
2026-05-06 15:20 40.97669 28.15814 9625 ft 284 kts 113°
2026-05-06 15:20 40.96773 28.18115 9339 ft 280 kts 113°
2026-05-06 15:20 40.95886 28.20396 9065 ft 277 kts 114°
2026-05-06 15:21 40.95009 28.22646 8762 ft 274 kts 114°
2026-05-06 15:21 40.94138 28.24874 8479 ft 271 kts 114°
2026-05-06 15:21 40.93276 28.27078 8201 ft 269 kts 114°
2026-05-06 15:21 40.92420 28.29262 7936 ft 267 kts 114°
2026-05-06 15:22 40.91570 28.31429 7647 ft 265 kts 114°
2026-05-06 15:22 40.90725 28.33581 7375 ft 263 kts 114°
2026-05-06 15:22 40.89886 28.35715 7105 ft 261 kts 114°
2026-05-06 15:22 40.89051 28.37836 6847 ft 260 kts 114°
2026-05-06 15:23 40.88215 28.39961 6586 ft 260 kts 115°
2026-05-06 15:23 40.87382 28.42075 6309 ft 260 kts 115°
2026-05-06 15:23 40.86562 28.44192 6026 ft 258 kts 111°
2026-05-06 15:23 40.86059 28.46435 5745 ft 253 kts 96°
2026-05-06 15:24 40.85857 28.48725 5454 ft 250 kts 91°
2026-05-06 15:24 40.85792 28.51011 5195 ft 248 kts 88°
2026-05-06 15:24 40.85806 28.53280 4918 ft 246 kts 86°
2026-05-06 15:24 40.85856 28.55536 4641 ft 245 kts 86°
2026-05-06 15:25 40.85915 28.57776 4366 ft 243 kts 86°
2026-05-06 15:25 40.85968 28.59997 4118 ft 241 kts 86°
2026-05-06 15:25 40.86012 28.62193 3999 ft 239 kts 87°
2026-05-06 15:25 40.86048 28.64359 3990 ft 239 kts 86°
2026-05-06 15:26 40.86297 28.66509 3991 ft 236 kts 71°
2026-05-06 15:26 40.87007 28.68435 3990 ft 233 kts 51°
2026-05-06 15:26 40.88157 28.69912 3995 ft 230 kts 35°
2026-05-06 15:26 40.89483 28.71085 3994 ft 229 kts 28°
2026-05-06 15:27 40.90884 28.72094 3985 ft 222 kts 25°
2026-05-06 15:27 40.92240 28.72973 3992 ft 219 kts 23°
2026-05-06 15:27 40.93614 28.73835 3993 ft 218 kts 23°
2026-05-06 15:27 40.94986 28.74703 3993 ft 219 kts 24°
2026-05-06 15:28 40.96366 28.75548 3994 ft 218 kts 18°
2026-05-06 15:28 40.97809 28.76070 3993 ft 209 kts
2026-05-06 15:28 40.99215 28.76219 4000 ft 199 kts 359°
2026-05-06 15:28 41.00596 28.76199 4001 ft 198 kts 357°
2026-05-06 15:29 41.01979 28.76165 3997 ft 199 kts 357°
2026-05-06 15:29 41.03364 28.76127 3993 ft 199 kts 357°
2026-05-06 15:29 41.04753 28.76090 3996 ft 200 kts 357°
2026-05-06 15:29 41.06142 28.76056 3991 ft 200 kts 357°
2026-05-06 15:30 41.07530 28.76028 3980 ft 200 kts 358°
2026-05-06 15:30 41.08911 28.76006 3813 ft 197 kts 358°
2026-05-06 15:30 41.10275 28.75983 3517 ft 196 kts 358°
2026-05-06 15:30 41.11644 28.75955 3222 ft 196 kts 358°
2026-05-06 15:31 41.12980 28.75929 2943 ft 188 kts 359°
2026-05-06 15:31 41.14278 28.75903 2702 ft 186 kts 359°
2026-05-06 15:31 41.15573 28.75877 2445 ft 186 kts 359°
2026-05-06 15:32 41.18157 28.75826 1953 ft 184 kts 360°
2026-05-06 15:32 41.19408 28.75802 1713 ft 175 kts
2026-05-06 15:32 41.20588 28.75778 1473 ft 165 kts 360°
2026-05-06 15:32 41.21723 28.75756 1265 ft 159 kts
2026-05-06 15:33 41.22800 28.75740 1032 ft 150 kts
2026-05-06 15:33 41.23803 28.75716 853 ft 140 kts
2026-05-06 15:33 41.24751 28.75688 670 ft 134 kts
2026-05-06 15:33 41.25683 28.75677 485 ft 133 kts
2026-05-06 15:34 41.26601 28.75656 355 ft 129 kts
2026-05-06 15:34 41.27382 28.75645 333 ft 88 kts 359°
2026-05-06 15:34 41.27806 28.75635 335 ft 36 kts 360°
2026-05-06 15:34 41.28006 28.75595 334 ft 27 kts 335°
2026-05-06 15:35 41.28129 28.75504 333 ft 14 kts 329°
2026-05-06 15:35 41.28162 28.75399 335 ft 13 kts 255°
2026-05-06 15:35 41.28088 28.75348 337 ft 10 kts 179°
2026-05-06 15:35 41.28016 28.75350 336 ft 11 kts 179°
2026-05-06 15:36 41.27930 28.75352 336 ft 13 kts 179°
2026-05-06 15:36 41.27830 28.75355 334 ft 15 kts 179°
2026-05-06 15:36 41.27718 28.75357 335 ft 17 kts 179°
2026-05-06 15:36 41.27594 28.75360 334 ft 19 kts 179°
2026-05-06 15:37 41.27458 28.75364 333 ft 20 kts 178°
2026-05-06 15:37 41.27315 28.75368 335 ft 20 kts 179°
2026-05-06 15:37 41.27174 28.75370 333 ft 21 kts 179°
2026-05-06 15:37 41.27029 28.75374 335 ft 21 kts 179°
2026-05-06 15:38 41.26935 28.75376 335 ft 10 kts 179°
2026-05-06 15:38 41.26896 28.75323 334 ft 9 kts 265°
2026-05-06 15:38 41.26894 28.75230 338 ft 11 kts 269°
2026-05-06 15:38 41.26892 28.75124 338 ft 11 kts 269°
2026-05-06 15:39 41.26891 28.75027 338 ft 9 kts 269°
2026-05-06 15:39 41.26891 28.74949 338 ft 7 kts 267°
2026-05-06 15:39 41.26867 28.74914 334 ft 4 kts 200°
2026-05-06 15:39 41.26832 28.74912 334 ft 5 kts 179°
2026-05-06 15:40 41.26801 28.74913 336 ft 3 kts 179°
2026-05-06 15:40 41.26786 28.74913 334 ft 0 kts 179°